Regional Weather Roundup
Issued by NWS Cleveland, OH

Home | Current Version | Previous Version | Text Only | Print | Product List | Glossary On
Versions: 1 2 3 4 5 6 7 8 9 10 11 12 13 14 15 16 17 18 19 20 21 22 23 24 25 26 27 28 29 30 31 32 33 34 35 36 37 38 39 40 41 42 43 44 45 46 47 48 49 50
000
ASUS41 KCLE 291210
RWRCLE
OHIO REGIONAL WEATHER ROUNDUP
NATIONAL WEATHER SERVICE CLEVELAND, OH
800 AM EDT SUN MAR 29 2015

NOTE: "FAIR" INDICATES FEW OR NO CLOUDS BELOW 12,000 FEET WITH NO
SIGNIFICANT WEATHER AND/OR OBSTRUCTIONS TO VISIBILITY.

OHZ001>008-015>018-024>027-034-035-043-044-291300-
   NORTHWEST OHIO

CITY           SKY/WX    TMP DP  RH WIND       PRES   REMARKS
DEFIANCE       PTCLDY    23  16  74 S5        30.30R WCI  17
FINDLAY        CLEAR     24  16  71 S10       30.29S WCI  14
TOLEDO EXPRESS CLEAR     24  15  68 S7        30.29R WCI  16
TOLEDO EXEC    CLEAR     24  15  68 SW9       30.30R WCI  14
LIMA           CLEAR     24  15  68 S10       30.29S WCI  14
$$

OHZ009>014-019>023-028>033-038-089-291300-
   NORTHEAST OHIO

CITY           SKY/WX    TMP DP  RH WIND       PRES   REMARKS
CLE-HOPKINS    PTCLDY    23  13  65 S9        30.34R WCI  13
CLE-LAKEFRONT  CLEAR     23  13  65 SE8       30.32R WCI  14
CUY CO. ARPT   CLEAR     27  16  63 SW12      30.31S WCI  16
LORAIN-ELYRIA  CLEAR     22  15  75 SW8       30.32R WCI  12
ASHTABULA      CLEAR     19  13  77 S7        30.31R WCI  10
AKRON-CANTON   CLEAR     18  11  74 S5        30.32R WCI  11
WOOSTER        CLEAR     19  14  81 SW5       30.33R WCI  12
MANSFIELD      CLEAR     20  13  74 S8        30.30R WCI  10
YOUNGSTOWN     PTCLDY    18  10  71 SW7       30.31R WCI   9
$$

OHZ042-051>053-060>062-070>072-077>081-291300-
  SOUTHWEST OHIO

CITY           SKY/WX    TMP DP  RH WIND       PRES   REMARKS
CINC-COVINGTON PTCLDY    25  14  63 S13       30.32F WCI  14
CINC-LUNKEN    CLEAR     19  17  92 E3        30.37F
HAMILTON       CLEAR     23  16  74 E3        30.35F
DAYTON         PTCLDY    25  14  63 S10       30.33S WCI  15
WRIGHT-PAT AFB CLEAR     21  14  76 SE6       30.33F WCI  13
DAYTON GENERAL CLEAR     23  14  68 SE10      30.32S WCI  12
WILMINGTON     CLEAR     23  13  65 S7        30.34R WCI  15
$$

OHZ036-037-039>041-045>050-054>059-063>069-073>076-082>088-291300-
  CENTRAL AND SOUTHEAST OHIO

CITY           SKY/WX    TMP DP  RH WIND       PRES   REMARKS
COLUMBUS       FAIR      20  14  77 S3        30.36R
OSU AIRPORT    CLEAR     21  13  71 S5        30.35R WCI  15
BOLTON FIELD   CLEAR     18  14  86 S3        30.36R
RICKENBACK AFB FAIR      19  14  80 S7        30.36S WCI  10
NEWARK         CLEAR     18  14  84 CALM      30.35R
MARION         CLEAR     20  13  74 S9        30.33R WCI   9
LANCASTER      CLEAR     18  14  84 SE3       30.37R
ZANESVILLE     CLEAR     14  10  84 CALM      30.37R
NEW PHILLY     CLEAR     18  13  80 SE5       30.37R WCI  11
$$


USA.gov is the U.S. government's official web portal to all federal, state and local government web resources and services.